STARLINK-32626 (62123 NORAD) Tracking and Keplerian Element Data

This shows tracking and keplerian element data for the satellite.

Feedback or suggestion? Click here.




ElementValue
Catalog62123
NameSTARLINK-32626
Epoch Orbit1173
Epoch Day34.90018272
Epoch Year2025
RAAN229.6906
Inclination43.0013
Eccentricity0.0001567
Argument of Perigee260.0817
Mean Anonmoly99.9862
Mean Motion15.40691534
Decay Rate-3.016E-05
L11 62123U 24222K 25034.90018272 -.00003016 00000+0 -64990-4 0 9992
L22 62123 43.0013 229.6906 0001567 260.0817 99.9862 15.40691534 11737



Live tracking and technical data element details for STARLINK-32626 (NORAD 62123). STARLINK-32626 can be tracked NOW for your location showing map with azimuth and elevation plus other details from your city location.







IsCatalogInMostPopularTable: catalog: 62123, numindb: 11
Update: records affected: 1



GetName: 62123 STARLINK-32626

Hit Count: updated at: Sun, 18 May 2025 22:35:58 GMT